sat.trackr.live / text

‹ back to catalog

STARLINK-34227

NORAD 64178 · 2025-113J

PAYLOAD ACTIVE UNKNOWN

§ Identity

Operator
Country
US
Launch date
2025-05-28
Launch site
AFETR
Launch vehicle
Mass (kg)
RCS (m²)

Purposes: comms

External: N2YO · Heavens-Above · Gunter

§ Orbital elements

Epoch: 2026-09-20T16:52:13.014624Z

Period
93.85 min
Inclination
53.1599°
Eccentricity
0.0001686
Mean motion
15.34378095 rev/d
Perigee alt
461.6 km
Apogee alt
463.9 km
Semi-major
6,840.9 km
B*
1.0929e-3
RAAN
264.5267°
Arg perigee
79.0894°
Mean anomaly
281.0298°
Rev number
7,493

§ Raw data

STARLINK-342271 64178U 25113J   26263.70292841  .00036706  00000+0  10929-2 0  99942 64178  53.1599 264.5267 0001686  79.0894 281.0298 15.34378095 74938

JSON: /api/v1/satellites/64178 · /tle

For live sub-satellite position, see the globe view (requires WebGL).

§ Visibility from observer

Set your observer location to see the next 7 days of passes ≥ 10°. The values pass through the URL so the page stays shareable.

No JS? Fill the form by hand. The geolocation button needs JavaScript.